When you browse on this site, cookies collect data to enhance your experience and personalize the content and advertising you see.
Visit our Privacy Policy to learn more. By continuing to use the site, you agree to this use of cookies and data.
  • In Czech Republic
  • List of Countries
  • For 7 days
  • Water Temperature
  • Weather Map
  • Weather Widgets
  • user-avatar
    Login

    Hourly Weather Mainz

    Today, 12 December, Thursday

    Time Temperature Precipitation Wind Pressure Humidity
    00:00 +3°C° 0 mm 2 mps 745 mmHg 93%
    01:00 +3°C° 0 mm 2 mps 745 mmHg 91%
    02:00 +4°C° 0 mm 2 mps 745 mmHg 91%
    03:00 +4°C° 0 mm 2 mps 744 mmHg 91%
    04:00 +4°C° 0 mm 2 mps 744 mmHg 91%
    05:00 +4°C° 0 mm 2 mps 744 mmHg 91%
    06:00 +4°C° 0 mm 2 mps 744 mmHg 91%
    07:00 +4°C° 0 mm 2 mps 744 mmHg 92%
    08:00 +4°C° 0.1 mm 2 mps 744 mmHg 92%
    09:00 +4°C° 0.1 mm 2 mps 744 mmHg 92%
    10:00 +3°C° 0.1 mm 3 mps 744 mmHg 91%
    11:00 +4°C° 0 mm 3 mps 744 mmHg 86%
    12:00 +4°C° 0 mm 4 mps 744 mmHg 81%
    13:00 +5°C° 0 mm 4 mps 744 mmHg 75%
    14:00 +4°C° 0 mm 4 mps 743 mmHg 74%
    15:00 +4°C° 0 mm 4 mps 742 mmHg 73%
    16:00 +4°C° 0 mm 4 mps 741 mmHg 72%
    17:00 +3°C° 0 mm 4 mps 741 mmHg 75%
    18:00 +1°C° 0 mm 4 mps 740 mmHg 79%
    19:00 +1°C° 0 mm 4 mps 739 mmHg 82%
    20:00 +1°C° 0 mm 3 mps 738 mmHg 81%
    21:00 +1°C° 0 mm 3 mps 737 mmHg 81%
    22:00 +1°C° 0 mm 3 mps 736 mmHg 81%
    23:00 +1°C° 0 mm 3 mps 734 mmHg 79%

    Tomorrow, 13 December, Friday

    Time Temperature Precipitation Wind Pressure Humidity
    00:00 0°C° 0 mm 4 mps 733 mmHg 78%
    01:00 0°C° 0 mm 4 mps 732 mmHg 76%
    02:00 0°C° 0.4 mm 4 mps 730 mmHg 83%
    03:00 0°C° 0.4 mm 5 mps 729 mmHg 89%
    04:00 0°C° 0.4 mm 5 mps 727 mmHg 96%
    05:00 +1°C° 0.9 mm 5 mps 726 mmHg 95%
    06:00 +1°C° 0.9 mm 4 mps 726 mmHg 94%
    07:00 +3°C° 0.9 mm 4 mps 725 mmHg 94%
    08:00 +3°C° 1.2 mm 4 mps 725 mmHg 93%
    09:00 +3°C° 1.2 mm 4 mps 725 mmHg 93%
    10:00 +4°C° 1.2 mm 4 mps 724 mmHg 92%
    11:00 +4°C° 0.3 mm 4 mps 725 mmHg 91%
    12:00 +3°C° 0.3 mm 5 mps 726 mmHg 90%
    13:00 +3°C° 0.3 mm 6 mps 726 mmHg 89%
    14:00 +3°C° 0.3 mm 6 mps 727 mmHg 87%
    15:00 +3°C° 0.3 mm 6 mps 727 mmHg 86%
    16:00 +3°C° 0.3 mm 7 mps 728 mmHg 84%
    17:00 +3°C° 0.6 mm 7 mps 729 mmHg 83%
    18:00 +3°C° 0.6 mm 7 mps 730 mmHg 83%
    19:00 +3°C° 0.6 mm 7 mps 731 mmHg 82%
    20:00 +3°C° 0.3 mm 7 mps 732 mmHg 82%
    21:00 +3°C° 0.3 mm 6 mps 733 mmHg 82%
    22:00 +3°C° 0.3 mm 6 mps 733 mmHg 82%
    23:00 +3°C° 0 mm 6 mps 734 mmHg 82%

    Day after tomorrow, 14 December, Saturday

    Time Temperature Precipitation Wind Pressure Humidity
    00:00 +2°C° 0 mm 5 mps 735 mmHg 83%
    01:00 +2°C° 0 mm 5 mps 736 mmHg 83%
    02:00 +2°C° 0.1 mm 5 mps 736 mmHg 83%
    03:00 +2°C° 0.1 mm 5 mps 736 mmHg 82%
    04:00 +2°C° 0.1 mm 5 mps 736 mmHg 82%
    05:00 +2°C° 0.2 mm 5 mps 736 mmHg 84%
    06:00 +2°C° 0.2 mm 5 mps 736 mmHg 87%
    07:00 +2°C° 0.2 mm 5 mps 735 mmHg 90%
    08:00 +4°C° 0.4 mm 6 mps 735 mmHg 85%
    09:00 +5°C° 0.4 mm 6 mps 736 mmHg 80%
    10:00 +6°C° 0.4 mm 7 mps 736 mmHg 75%
    11:00 +6°C° 0 mm 7 mps 737 mmHg 72%
    12:00 +6°C° 0 mm 7 mps 738 mmHg 69%
    13:00 +6°C° 0 mm 8 mps 739 mmHg 65%
    14:00 +7°C° 0 mm 6 mps 739 mmHg 66%
    15:00 +6°C° 0 mm 5 mps 740 mmHg 67%
    16:00 +6°C° 0 mm 4 mps 741 mmHg 68%
    17:00 +6°C° 0 mm 4 mps 741 mmHg 73%
    18:00 +6°C° 0 mm 4 mps 741 mmHg 78%
    19:00 +6°C° 0 mm 4 mps 741 mmHg 82%
    20:00 +7°C° 0 mm 3 mps 742 mmHg 83%
    21:00 +7°C° 0 mm 3 mps 742 mmHg 83%
    22:00 +7°C° 0 mm 2 mps 742 mmHg 84%
    23:00 +7°C° 0.1 mm 2 mps 742 mmHg 86%

    15 December, Sunday

    Time Temperature Precipitation Wind Pressure Humidity
    00:00 +6°C° 0.1 mm 2 mps 742 mmHg 89%
    01:00 +6°C° 0.1 mm 2 mps 741 mmHg 91%
    02:00 +7°C° 1.4 mm 2 mps 741 mmHg 92%
    03:00 +7°C° 1.4 mm 3 mps 740 mmHg 94%
    04:00 +8°C° 1.4 mm 3 mps 740 mmHg 95%
    05:00 +7°C° 0.3 mm 4 mps 740 mmHg 92%
    06:00 +8°C° 0.3 mm 5 mps 740 mmHg 88%
    07:00 +8°C° 0.3 mm 5 mps 740 mmHg 85%
    08:00 +8°C° 1 mm 6 mps 742 mmHg 80%
    09:00 +7°C° 1 mm 6 mps 743 mmHg 76%
    10:00 +6°C° 1 mm 7 mps 744 mmHg 71%
    11:00 +7°C° 0 mm 6 mps 745 mmHg 67%
    12:00 +7°C° 0 mm 5 mps 746 mmHg 63%
    13:00 +7°C° 0 mm 5 mps 746 mmHg 59%
    14:00 +7°C° 0 mm 4 mps 747 mmHg 61%
    15:00 +7°C° 0 mm 3 mps 747 mmHg 64%
    16:00 +7°C° 0 mm 3 mps 748 mmHg 66%
    17:00 +5°C° 0 mm 3 mps 748 mmHg 69%
    18:00 +5°C° 0 mm 3 mps 749 mmHg 71%
    19:00 +4°C° 0 mm 3 mps 749 mmHg 73%
    20:00 +5°C° 0 mm 2 mps 749 mmHg 76%
    21:00 +5°C° 0 mm 2 mps 749 mmHg 79%
    22:00 +5°C° 0 mm 2 mps 749 mmHg 82%
    23:00 +5°C° 0 mm 2 mps 749 mmHg 85%

    16 December, Monday

    Time Temperature Precipitation Wind Pressure Humidity
    00:00 +6°C° 0 mm 2 mps 749 mmHg 87%
    01:00 +6°C° 0 mm 2 mps 749 mmHg 90%
    02:00 +6°C° 0 mm 2 mps 749 mmHg 90%
    03:00 +6°C° 0 mm 2 mps 749 mmHg 90%
    04:00 +6°C° 0 mm 2 mps 748 mmHg 90%
    05:00 +6°C° 0 mm 2 mps 748 mmHg 91%
    06:00 +6°C° 0 mm 2 mps 748 mmHg 91%
    07:00 +6°C° 0 mm 2 mps 748 mmHg 92%
    08:00 +6°C° 0.1 mm 2 mps 748 mmHg 93%
    09:00 +8°C° 0.1 mm 1 mps 749 mmHg 94%
    10:00 +8°C° 0.1 mm 1 mps 749 mmHg 95%
    11:00 +8°C° 0.6 mm 1 mps 748 mmHg 96%
    12:00 +8°C° 0.6 mm 1 mps 748 mmHg 97%
    13:00 +8°C° 0.6 mm 1 mps 747 mmHg 98%
    14:00 +8°C° 0.9 mm 1 mps 747 mmHg 97%
    15:00 +8°C° 0.9 mm 1 mps 747 mmHg 97%
    16:00 +8°C° 0.9 mm 2 mps 746 mmHg 96%
    17:00 +8°C° 0.9 mm 2 mps 746 mmHg 95%
    18:00 +9°C° 0.9 mm 1 mps 746 mmHg 95%
    19:00 +9°C° 0.9 mm 1 mps 746 mmHg 94%
    20:00 +9°C° 0.2 mm 1 mps 746 mmHg 92%
    21:00 +8°C° 0.2 mm 2 mps 746 mmHg 89%
    22:00 +8°C° 0.2 mm 2 mps 746 mmHg 86%
    23:00 +8°C° 0 mm 2 mps 745 mmHg 85%

    17 December, Tuesday

    Time Temperature Precipitation Wind Pressure Humidity
    00:00 +8°C° 0 mm 1 mps 745 mmHg 84%
    01:00 +8°C° 0 mm 1 mps 745 mmHg 83%
    02:00 +8°C° 0 mm 1 mps 745 mmHg 82%
    03:00 +8°C° 0 mm 1 mps 745 mmHg 80%
    04:00 +8°C° 0 mm 1 mps 745 mmHg 79%
    05:00 +8°C° 0 mm 1 mps 745 mmHg 78%
    06:00 +7°C° 0 mm 2 mps 746 mmHg 78%
    07:00 +7°C° 0 mm 2 mps 746 mmHg 77%
    08:00 +7°C° 0 mm 2 mps 746 mmHg 77%
    09:00 +7°C° 0 mm 2 mps 746 mmHg 76%
    10:00 +7°C° 0 mm 2 mps 747 mmHg 76%
    11:00 +8°C° 0 mm 2 mps 747 mmHg 76%
    12:00 +9°C° 0 mm 3 mps 747 mmHg 76%
    13:00 +10°C° 0 mm 3 mps 747 mmHg 76%
    14:00 +10°C° 0.1 mm 3 mps 747 mmHg 77%
    15:00 +10°C° 0.1 mm 3 mps 748 mmHg 79%
    16:00 +9°C° 0.1 mm 2 mps 748 mmHg 81%
    17:00 +9°C° 0.4 mm 2 mps 749 mmHg 84%
    18:00 +9°C° 0.4 mm 3 mps 749 mmHg 88%
    19:00 +9°C° 0.4 mm 3 mps 750 mmHg 91%
    20:00 +9°C° 0.1 mm 2 mps 751 mmHg 92%
    21:00 +9°C° 0.1 mm 2 mps 752 mmHg 93%
    22:00 +8°C° 0.1 mm 2 mps 753 mmHg 94%
    23:00 +8°C° 0.1 mm 2 mps 753 mmHg 94%
    Show more